SCP
0 -0 0 0 0 0 0 0 0 0 0 0 0 0 0 0 0 0 0 0 0 0 0 0 0 0 0 0 0 0 0 0 0 0 0 0 0 0 0 0 0 0 0
0 0 0 0 0 0 0 0 0 0 0 0 0 0 0 0 0 0 0 0 0 0 0 0 0 0 0 0 0 0 0 0 0 0 0 0 0 0 0 0 0 0 0
0 0 0 0 0 0 0 0 0 0 0 0 0 0 0 0 0 0 0 0 0 0 0 0 0 0 0 0 0 0 0 0 0 0 0 0 0 0 0 0 0 0 0
0 0 0 0 0 0 0 0 0 0 0 0 0 0 0 0 0 0 0 0 0 0 0 0 0 0 0 0 0 0 0 0 0 0 0 0 0 0 0 0 0 0 0
0 0 0 0 0 0 0 0 0 0 0 0 0 0 0 0 0 0 0 0 0 0 0 0 0 0 0 0 0 0 0 0 0 0 0 0 0 0 0 0 0 0 0
0 0 0 0 0 0 0 0 0 0 0 0 0 0 0 0 0 0 0 0 0 0 0 0 0 0 0 0 0 0 0 0 0 0 0 0 0 0 0 0 0 0 0
0 0 0 0 0 0 0 0 0 0 0 0 0 0 0 0 0 0 0 0 0 0 0 0 0 0 0 0 0 0 0 0 0 0 0 0 0 0 0 0 0 0 0
0 0 0 0 0 0 0 0 0 0 0 0 0 0 0 0 0 0 0 0 0 0 0 0 0 0 0 0 0 0 0 0 0 0 0 0 0 0 0 0 0 0 0
0 0 0 0 0 0 0 0 0 0 0 0 0 0 0 0 0 0 0 0 0 0 0 0 0 0 0 0 0 0 0 0 0 0 0 0 0 0 0 0 0 0 0
0 0 0 0 0 0 0 0 0 0 0 0 0 0 0 0 0 0 0 0 0 0 0 0 0 0 0 0 0 0 0 0 0 0 0 0 0 0 0 0 0 0 0
0 0 0 0 0 0 0 0 0 0 0 0 0 0 0 0 0 0 0 0 0 0 0 0 0 0 0 0 0 0 0 0 0 0 0 0 0 0 0 0 0 0 0
0 0 0 0 0 0 0 0 0 0 0 0 0 0 0 0 0 0 0 0 0 0 0 0 0 0 0 0 0 0 0 0 0 0 0 0 0 0 0 0 0 0 0
0 0 0 0 0 0 0 0 0 0 0 0 0 0 0 0 0 0 0 0 0 0 0 0 0 0 0 0 0 0 0 0 0 0 0 0 0 0 0 0 0 0 0
0 0 0 0 0 0 0 0 0 0 0 0 0 0 0 0 0 0 0 0 0 0 0 0 0 0 0 0 0 0 0 0 0 0 0 0 0 0 0 0 0 0 0
0 0 0 0 0 0 0 0 0 0 0 0 0 0 0 0 0 0 0 0 0 0 0 0 0 0 0 0 0 0 0 0 0 0 0 0 0 0 0 0 0 0 0
0 0 0 0 0 0 0 0 0 0 0 0 0 0 0 0 0 0 0 0 0 0 0 0 0 0 0 0 0 0 0 0 0 0 0 0 0 0 0 0 0 0 0
0 0 0 0 0 0 0 0 0 0 0 0 0 0 0 0 0 0 0 0 0 0 0 0 0 0 0 0 0 0 0 0 0 0 0 0 0 0 0 0 0 0 0
-0 -0 0 0 0 0 0 0 0 0 0 0 0 0 0 0 0 0 0 0 0 0 0 0 0 0 0 0 0 0 0 0 0 0 0 0 0 0 0 0 0 0 0
-0 -0 0 0 0 0 0 0 0 0 0 0 0 0 0 0 0 0 0 0 0 0 0 0 0 0 0 0 0 0 0 0 0 0 0 0 0 0 0 0 0 0 0
0 0 0 0 0 0 0 0 0 0 0 0 0 0 0 0 0 0 0 0 0 0 0 0 0 0 0 0 0 0 0 0 0 0 0 0 0 0 0 0 0 0 0
0 0 -0 -0 0 0 0 0 0 0 0 0 -0 0 0 0 0 0 0 0 0 0 0 0 0 0 0 0 0 0 0 0 0 0 0 0 0 0 0 0 0 0 0
0 0 0 -0 -0 -0 -0 -0 -0 -0 -0 0 0 0 0 0 0 0 0 0 0 0 0 0 0 0 0 0 0 0 0 0 0 0 0 0 0 0 0 0 0 0 0
-0 -0 -0 -0 -0 -0 0 0 0 0 0 0 0 0 0 0 0 0 0 0 0 0 0 0 0 0 0 0 0 0 0 0 0 -0 0 0 0 0 0 0 0 0 0
0 0 0 -0 0 0 0 0 0 0 0 0 0 0 0 0 0 0 0 0 0 0 -0 0 0 -0 -0 0 0 0 -0 0 -0 0 -0 -0 -0 0 0 -0 0 0 0
0 0 0 0 0 0 0 0 0 0 0 0 0 0 0 0 0 0 0 -0 -0 -0 -0 -0 -0 -0 -0 0 0 -0 -0 -0 -0 -0 -0 -0 -0 -0 -0 -0 -0 -0 -0
0 0 0 0 0 0 0 0 0 0 0 0 0 0 0 0 0 0 0 0 0 0 0 0 0 -0 0 0 0 0 0 0 0 -0 -0 -0 -0 -0 -0 -0 -0 -0 -0
Wind_Speed_500mb
55 53 65 60 64 73 74 76 75 83 83 81 72 73 70 60 52 49 51 48 53 51 51 48 41 39 35 32 35 33 36 36 35 29 27 25 26 30 32 33 34 33 35
64 63 60 67 67 70 69 77 80 76 84 84 78 76 71 62 59 58 58 55 55 54 52 47 43 39 38 38 39 40 41 41 36 31 23 16 25 32 35 37 38 36 36
61 61 70 74 66 74 74 78 77 78 85 80 78 74 73 66 68 69 63 65 59 57 53 48 44 40 40 40 40 41 43 42 36 40 22 13 17 15 25 30 32 37 37
69 51 71 70 72 73 75 77 78 74 77 84 82 88 90 86 80 75 68 64 58 57 56 51 45 42 41 43 43 42 43 41 39 42 42 34 26 17 14 23 26 32 36
64 72 53 92 82 70 75 80 87 81 83 76 86 83 86 89 85 81 74 68 61 59 59 54 47 47 45 45 45 44 44 45 42 40 39 44 43 39 36 35 36 36 36
74 76 60 74 75 71 65 76 79 88 88 79 84 88 84 87 84 84 80 70 65 64 62 57 52 53 50 49 46 43 45 47 45 43 39 37 31 30 32 38 43 49 46
80 74 62 46 64 73 69 74 78 87 89 78 73 82 82 80 79 82 77 74 72 71 65 61 57 56 54 52 51 51 51 49 46 43 41 37 32 30 32 32 32 39 45
85 83 70 53 63 71 72 76 83 86 86 81 79 91 91 83 79 74 73 74 69 67 63 64 62 59 60 56 53 51 48 46 43 38 35 30 24 21 31 36 36 41 45
72 73 74 73 57 76 77 69 80 81 78 78 86 91 92 85 84 77 70 66 65 67 69 67 66 64 60 56 53 50 46 45 38 33 29 27 28 37 37 36 38 40 43
72 75 70 71 70 74 75 65 76 76 80 83 89 97 90 82 80 75 71 69 67 71 71 70 69 65 59 54 51 48 38 36 34 31 37 38 44 43 39 38 41 44 47
71 70 73 64 67 66 63 54 67 71 72 84 89 91 86 82 83 78 76 71 69 74 75 73 69 64 51 49 45 38 30 27 32 30 38 44 45 43 43 45 47 49 53
36 59 65 56 53 51 46 49 58 61 69 78 82 83 85 84 87 78 76 74 74 77 75 69 67 64 52 39 33 30 22 30 30 39 45 45 47 46 49 52 54 57 57
47 53 55 51 50 49 44 44 48 56 70 73 83 87 89 88 87 83 81 77 78 79 70 61 50 41 35 35 26 35 36 34 40 47 47 46 49 51 54 57 61 63 63
52 52 49 45 38 35 36 38 45 48 59 69 75 75 73 66 67 65 63 55 44 44 44 32 34 25 19 23 23 23 26 44 48 43 46 48 51 55 58 61 66 69 70
70 59 52 45 39 35 30 25 20 14 9 7 8 6 4 6 5 11 15 26 31 32 28 27 21 13 21 23 29 33 34 38 42 43 46 49 53 57 59 69 70 70 74
74 76 70 65 63 61 55 52 51 50 45 52 53 49 53 53 56 47 46 41 35 23 11 16 20 22 15 18 26 33 37 39 43 46 49 52 59 61 61 65 68 70 74
77 82 85 87 88 92 90 93 89 81 79 72 66 60 54 51 39 33 22 18 25 24 20 9 6 13 17 22 26 31 36 43 51 55 56 59 59 61 66 69 71 73 74
85 94 97 95 92 83 77 74 71 71 59 55 55 33 32 30 18 24 21 14 13 11 7 5 10 15 20 26 31 33 36 41 45 49 53 58 61 61 66 72 77 79 80
96 94 90 85 82 79 64 60 59 55 55 52 44 39 33 28 27 26 23 17 15 12 12 14 16 21 25 26 28 33 37 41 44 47 49 52 55 55 57 65 74 79 82
87 83 76 72 75 73 63 59 64 63 65 57 51 45 39 34 32 29 26 23 21 23 24 21 19 18 22 26 29 32 37 42 47 46 50 52 56 60 60 62 70 84 91
80 75 71 74 71 65 59 63 62 66 53 45 38 40 40 39 36 31 31 30 28 25 24 25 25 27 31 32 38 44 50 56 62 65 70 73 73 72 69 67 74 83 84
78 75 77 79 73 68 64 70 71 58 50 46 48 50 48 43 39 34 34 32 29 28 29 31 33 38 41 46 51 55 59 64 68 73 75 79 79 76 72 70 67 72 76
77 74 73 74 72 68 66 66 61 52 47 43 47 46 41 38 37 36 37 36 37 40 42 45 47 51 54 57 60 63 68 70 75 76 79 83 84 82 80 72 69 62 66
72 70 71 74 71 65 62 61 52 48 43 44 45 44 41 42 42 44 47 49 53 56 57 58 60 60 61 66 71 76 78 80 82 85 86 85 85 85 87 90 87 79 71
62 64 66 65 64 58 56 53 49 45 44 45 46 47 47 49 50 52 53 52 54 56 57 58 60 65 68 68 67 73 79 83 82 86 89 94 98 103 104 103 99 96 92
55 57 58 57 56 52 52 52 50 47 46 47 51 52 51 52 53 53 53 56 56 55 56 57 59 60 58 65 72 76 80 85 91 95 101 106 107 107 108 107 106 100 93
Wind_Direction_500mb
240 219 214 208 203 206 205 206 203 207 207 205 203 204 207 206 204 203 201 201 210 211 212 219 216 218 224 234 240 236 229 222 224 221 219 227 236 245 257 261 264 266 267
242 232 213 210 199 204 209 205 210 213 213 211 209 209 208 207 201 203 202 207 211 215 221 218 218 217 229 234 240 239 229 226 225 222 224 229 243 249 257 266 272 270 271
241 229 223 214 207 203 209 206 209 213 216 212 210 212 215 211 207 209 210 209 212 220 216 218 221 224 234 236 243 241 234 232 227 225 217 209 227 244 262 269 271 276 278
234 235 217 210 215 204 203 204 210 213 217 215 211 214 216 215 216 221 218 218 220 216 216 217 220 226 234 239 241 239 235 233 234 227 231 236 248 241 258 270 273 280 283
224 238 235 208 216 214 208 209 210 210 215 215 212 216 219 223 228 227 227 221 217 214 216 218 219 228 235 238 240 237 231 235 237 235 238 241 247 251 255 276 284 277 288
228 233 241 199 210 212 214 213 213 211 215 216 214 222 220 225 228 227 226 220 218 215 215 219 224 229 237 238 238 235 231 235 237 236 240 248 254 257 254 254 262 279 283
219 221 227 215 207 210 212 213 209 210 218 221 216 212 223 229 235 233 227 221 220 218 218 219 226 231 235 236 234 230 230 231 231 237 242 245 249 260 271 268 265 264 274
206 212 218 213 214 217 217 214 216 218 224 220 219 216 227 232 236 235 228 228 227 222 223 223 228 230 234 234 232 226 224 223 227 236 243 243 252 263 276 271 267 265 269
203 201 214 218 214 218 218 215 215 215 216 217 217 222 223 226 231 231 227 229 226 227 224 227 230 230 231 230 225 220 218 218 229 224 231 249 277 266 265 267 270 270 271
206 209 210 212 215 221 220 218 218 216 223 222 219 220 221 226 229 231 228 225 226 227 229 230 228 227 224 221 216 212 216 231 226 235 260 259 251 264 266 268 270 272 272
200 201 204 207 208 216 215 217 222 220 218 217 217 218 223 223 226 230 226 226 228 230 230 230 229 223 213 207 208 225 217 241 248 252 246 256 265 266 272 273 274 276 278
173 188 193 194 194 195 205 214 217 219 219 219 214 213 218 222 226 229 229 230 230 228 226 223 222 219 207 203 213 215 249 269 241 252 262 266 270 275 278 279 282 281 281
108 127 152 170 187 182 201 206 213 214 217 213 215 214 215 221 223 226 226 224 222 220 214 210 201 181 196 205 226 261 265 238 255 261 266 272 276 280 283 285 287 287 287
91 102 109 118 137 152 175 195 201 209 210 213 207 206 209 211 215 218 217 211 206 195 189 167 173 189 203 241 231 224 248 261 266 267 270 275 281 286 288 289 290 290 291
72 84 91 97 102 110 115 124 129 131 124 108 135 103 83 129 170 180 155 139 135 133 158 176 175 181 197 217 253 269 271 270 272 276 281 284 286 286 288 289 291 293 292
69 75 82 89 88 86 86 89 87 85 93 94 86 95 97 100 101 99 109 120 127 127 168 198 195 211 254 275 280 285 283 284 286 287 289 292 289 290 291 292 292 292 290
71 73 76 84 91 92 93 91 90 90 84 84 84 77 90 93 99 101 105 123 138 157 193 210 258 269 278 289 286 285 285 287 287 290 297 294 296 297 298 296 294 292 290
72 83 89 92 92 89 90 94 93 90 93 85 81 86 85 101 115 123 139 145 133 104 52 346 329 316 306 299 294 296 304 304 301 301 302 304 305 306 305 302 298 296 294
81 83 85 85 89 89 91 90 85 81 77 78 81 78 80 84 77 79 78 64 49 34 5 352 348 345 344 338 322 316 312 311 310 310 313 310 309 309 305 303 301 300 298
81 86 88 88 88 86 87 86 81 77 73 72 73 74 68 65 65 62 60 52 39 31 26 26 22 8 4 352 342 336 335 329 322 319 316 315 315 313 313 309 306 302 303
78 80 81 79 80 80 79 78 74 70 68 70 74 77 74 70 67 66 65 60 57 54 49 41 32 21 11 358 345 343 340 338 333 332 329 327 325 324 320 314 306 302 304
82 80 79 80 80 79 77 76 73 73 73 73 69 66 65 64 62 56 56 51 46 39 32 22 14 8 2 355 349 347 347 347 343 340 336 334 332 329 325 319 315 310 305
80 81 81 80 77 74 75 75 75 73 70 67 66 64 61 58 55 47 42 37 32 26 21 15 10 5 1 356 354 354 353 350 347 343 341 337 335 332 329 325 318 311 305
77 77 77 76 75 73 72 72 71 68 64 62 61 58 53 49 45 40 36 31 29 25 21 17 14 11 7 6 4 1 358 355 350 347 343 340 337 335 333 332 330 328 321
78 75 73 72 71 69 69 68 65 61 59 59 57 54 50 48 44 42 42 39 38 33 28 25 20 15 13 8 2 358 355 351 346 341 340 341 342 341 339 336 333 330 329
80 79 77 76 74 70 65 60 55 50 47 46 44 43 42 43 45 48 47 44 42 36 30 24 17 14 8 360 357 353 351 348 344 343 343 342 341 340 337 334 331 330 330
Wind_Speed_850mb
55 53 65 60 64 73 74 76 75 83 83 81 72 73 70 60 52 49 51 48 53 51 51 48 41 39 35 32 35 33 36 36 35 29 27 25 26 30 32 33 34 33 35
64 63 60 67 67 70 69 77 80 76 84 84 78 76 71 62 59 58 58 55 55 54 52 47 43 39 38 38 39 40 41 41 36 31 23 16 25 32 35 37 38 36 36
61 61 70 74 66 74 74 78 77 78 85 80 78 74 73 66 68 69 63 65 59 57 53 48 44 40 40 40 40 41 43 42 36 40 22 13 17 15 25 30 32 37 37
69 51 71 70 72 73 75 77 78 74 77 84 82 88 90 86 80 75 68 64 58 57 56 51 45 42 41 43 43 42 43 41 39 42 42 34 26 17 14 23 26 32 36
64 72 53 92 82 70 75 80 87 81 83 76 86 83 86 89 85 81 74 68 61 59 59 54 47 47 45 45 45 44 44 45 42 40 39 44 43 39 36 35 36 36 36
74 76 60 74 75 71 65 76 79 88 88 79 84 88 84 87 84 84 80 70 65 64 62 57 52 53 50 49 46 43 45 47 45 43 39 37 31 30 32 38 43 49 46
80 74 62 46 64 73 69 74 78 87 89 78 73 82 82 80 79 82 77 74 72 71 65 61 57 56 54 52 51 51 51 49 46 43 41 37 32 30 32 32 32 39 45
85 83 70 53 63 71 72 76 83 86 86 81 79 91 91 83 79 74 73 74 69 67 63 64 62 59 60 56 53 51 48 46 43 38 35 30 24 21 31 36 36 41 45
72 73 74 73 57 76 77 69 80 81 78 78 86 91 92 85 84 77 70 66 65 67 69 67 66 64 60 56 53 50 46 45 38 33 29 27 28 37 37 36 38 40 43
72 75 70 71 70 74 75 65 76 76 80 83 89 97 90 82 80 75 71 69 67 71 71 70 69 65 59 54 51 48 38 36 34 31 37 38 44 43 39 38 41 44 47
71 70 73 64 67 66 63 54 67 71 72 84 89 91 86 82 83 78 76 71 69 74 75 73 69 64 51 49 45 38 30 27 32 30 38 44 45 43 43 45 47 49 53
36 59 65 56 53 51 46 49 58 61 69 78 82 83 85 84 87 78 76 74 74 77 75 69 67 64 52 39 33 30 22 30 30 39 45 45 47 46 49 52 54 57 57
47 53 55 51 50 49 44 44 48 56 70 73 83 87 89 88 87 83 81 77 78 79 70 61 50 41 35 35 26 35 36 34 40 47 47 46 49 51 54 57 61 63 63
52 52 49 45 38 35 36 38 45 48 59 69 75 75 73 66 67 65 63 55 44 44 44 32 34 25 19 23 23 23 26 44 48 43 46 48 51 55 58 61 66 69 70
70 59 52 45 39 35 30 25 20 14 9 7 8 6 4 6 5 11 15 26 31 32 28 27 21 13 21 23 29 33 34 38 42 43 46 49 53 57 59 69 70 70 74
74 76 70 65 63 61 55 52 51 50 45 52 53 49 53 53 56 47 46 41 35 23 11 16 20 22 15 18 26 33 37 39 43 46 49 52 59 61 61 65 68 70 74
77 82 85 87 88 92 90 93 89 81 79 72 66 60 54 51 39 33 22 18 25 24 20 9 6 13 17 22 26 31 36 43 51 55 56 59 59 61 66 69 71 73 74
85 94 97 95 92 83 77 74 71 71 59 55 55 33 32 30 18 24 21 14 13 11 7 5 10 15 20 26 31 33 36 41 45 49 53 58 61 61 66 72 77 79 80
96 94 90 85 82 79 64 60 59 55 55 52 44 39 33 28 27 26 23 17 15 12 12 14 16 21 25 26 28 33 37 41 44 47 49 52 55 55 57 65 74 79 82
87 83 76 72 75 73 63 59 64 63 65 57 51 45 39 34 32 29 26 23 21 23 24 21 19 18 22 26 29 32 37 42 47 46 50 52 56 60 60 62 70 84 91
80 75 71 74 71 65 59 63 62 66 53 45 38 40 40 39 36 31 31 30 28 25 24 25 25 27 31 32 38 44 50 56 62 65 70 73 73 72 69 67 74 83 84
78 75 77 79 73 68 64 70 71 58 50 46 48 50 48 43 39 34 34 32 29 28 29 31 33 38 41 46 51 55 59 64 68 73 75 79 79 76 72 70 67 72 76
77 74 73 74 72 68 66 66 61 52 47 43 47 46 41 38 37 36 37 36 37 40 42 45 47 51 54 57 60 63 68 70 75 76 79 83 84 82 80 72 69 62 66
72 70 71 74 71 65 62 61 52 48 43 44 45 44 41 42 42 44 47 49 53 56 57 58 60 60 61 66 71 76 78 80 82 85 86 85 85 85 87 90 87 79 71
62 64 66 65 64 58 56 53 49 45 44 45 46 47 47 49 50 52 53 52 54 56 57 58 60 65 68 68 67 73 79 83 82 86 89 94 98 103 104 103 99 96 92
55 57 58 57 56 52 52 52 50 47 46 47 51 52 51 52 53 53 53 56 56 55 56 57 59 60 58 65 72 76 80 85 91 95 101 106 107 107 108 107 106 100 93
Wind_Direction_850mb
240 219 214 208 203 206 205 206 203 207 207 205 203 204 207 206 204 203 201 201 210 211 212 219 216 218 224 234 240 236 229 222 224 221 219 227 236 245 257 261 264 266 267
242 232 213 210 199 204 209 205 210 213 213 211 209 209 208 207 201 203 202 207 211 215 221 218 218 217 229 234 240 239 229 226 225 222 224 229 243 249 257 266 272 270 271
241 229 223 214 207 203 209 206 209 213 216 212 210 212 215 211 207 209 210 209 212 220 216 218 221 224 234 236 243 241 234 232 227 225 217 209 227 244 262 269 271 276 278
234 235 217 210 215 204 203 204 210 213 217 215 211 214 216 215 216 221 218 218 220 216 216 217 220 226 234 239 241 239 235 233 234 227 231 236 248 241 258 270 273 280 283
224 238 235 208 216 214 208 209 210 210 215 215 212 216 219 223 228 227 227 221 217 214 216 218 219 228 235 238 240 237 231 235 237 235 238 241 247 251 255 276 284 277 288
228 233 241 199 210 212 214 213 213 211 215 216 214 222 220 225 228 227 226 220 218 215 215 219 224 229 237 238 238 235 231 235 237 236 240 248 254 257 254 254 262 279 283
219 221 227 215 207 210 212 213 209 210 218 221 216 212 223 229 235 233 227 221 220 218 218 219 226 231 235 236 234 230 230 231 231 237 242 245 249 260 271 268 265 264 274
206 212 218 213 214 217 217 214 216 218 224 220 219 216 227 232 236 235 228 228 227 222 223 223 228 230 234 234 232 226 224 223 227 236 243 243 252 263 276 271 267 265 269
203 201 214 218 214 218 218 215 215 215 216 217 217 222 223 226 231 231 227 229 226 227 224 227 230 230 231 230 225 220 218 218 229 224 231 249 277 266 265 267 270 270 271
206 209 210 212 215 221 220 218 218 216 223 222 219 220 221 226 229 231 228 225 226 227 229 230 228 227 224 221 216 212 216 231 226 235 260 259 251 264 266 268 270 272 272
200 201 204 207 208 216 215 217 222 220 218 217 217 218 223 223 226 230 226 226 228 230 230 230 229 223 213 207 208 225 217 241 248 252 246 256 265 266 272 273 274 276 278
173 188 193 194 194 195 205 214 217 219 219 219 214 213 218 222 226 229 229 230 230 228 226 223 222 219 207 203 213 215 249 269 241 252 262 266 270 275 278 279 282 281 281
108 127 152 170 187 182 201 206 213 214 217 213 215 214 215 221 223 226 226 224 222 220 214 210 201 181 196 205 226 261 265 238 255 261 266 272 276 280 283 285 287 287 287
91 102 109 118 137 152 175 195 201 209 210 213 207 206 209 211 215 218 217 211 206 195 189 167 173 189 203 241 231 224 248 261 266 267 270 275 281 286 288 289 290 290 291
72 84 91 97 102 110 115 124 129 131 124 108 135 103 83 129 170 180 155 139 135 133 158 176 175 181 197 217 253 269 271 270 272 276 281 284 286 286 288 289 291 293 292
69 75 82 89 88 86 86 89 87 85 93 94 86 95 97 100 101 99 109 120 127 127 168 198 195 211 254 275 280 285 283 284 286 287 289 292 289 290 291 292 292 292 290
71 73 76 84 91 92 93 91 90 90 84 84 84 77 90 93 99 101 105 123 138 157 193 210 258 269 278 289 286 285 285 287 287 290 297 294 296 297 298 296 294 292 290
72 83 89 92 92 89 90 94 93 90 93 85 81 86 85 101 115 123 139 145 133 104 52 346 329 316 306 299 294 296 304 304 301 301 302 304 305 306 305 302 298 296 294
81 83 85 85 89 89 91 90 85 81 77 78 81 78 80 84 77 79 78 64 49 34 5 352 348 345 344 338 322 316 312 311 310 310 313 310 309 309 305 303 301 300 298
81 86 88 88 88 86 87 86 81 77 73 72 73 74 68 65 65 62 60 52 39 31 26 26 22 8 4 352 342 336 335 329 322 319 316 315 315 313 313 309 306 302 303
78 80 81 79 80 80 79 78 74 70 68 70 74 77 74 70 67 66 65 60 57 54 49 41 32 21 11 358 345 343 340 338 333 332 329 327 325 324 320 314 306 302 304
82 80 79 80 80 79 77 76 73 73 73 73 69 66 65 64 62 56 56 51 46 39 32 22 14 8 2 355 349 347 347 347 343 340 336 334 332 329 325 319 315 310 305
80 81 81 80 77 74 75 75 75 73 70 67 66 64 61 58 55 47 42 37 32 26 21 15 10 5 1 356 354 354 353 350 347 343 341 337 335 332 329 325 318 311 305
77 77 77 76 75 73 72 72 71 68 64 62 61 58 53 49 45 40 36 31 29 25 21 17 14 11 7 6 4 1 358 355 350 347 343 340 337 335 333 332 330 328 321
78 75 73 72 71 69 69 68 65 61 59 59 57 54 50 48 44 42 42 39 38 33 28 25 20 15 13 8 2 358 355 351 346 341 340 341 342 341 339 336 333 330 329
80 79 77 76 74 70 65 60 55 50 47 46 44 43 42 43 45 48 47 44 42 36 30 24 17 14 8 360 357 353 351 348 344 343 343 342 341 340 337 334 331 330 330